Zurück zum Katalog

SL-6 R/B(2)

AktivHEO
NORAD 23645·ROCKET BODY·🇷🇺 Russia

Gestartet Aug 9, 1995 von Plesetsk Cosmodrome

Loading…

Nächste Überflüge (nächste 24 Stunden)

TLE

AktuellSource: Space-Track

Epoche: Sep 13, 2026, 22:18 UTC

1 23645U 95042D   26256.92957570 -.00000455  00000-0  00000-0 0  9990
2 23645  64.8051 304.0295 6982300 270.0233  17.0937  1.99255622223694

Verfolge SL-6 R/B(2) in Echtzeit mit AllMySat

Download on the App Store